Location: St. Louis
(38.6270°N, 90.1994°W)
Time: 11:13:59
(UTC-06:00)

S-56A Canister/Altair - Pass Details

Date: 30 November 2021
Orbit: 634 x 2499 km, 38.9° (Epoch: 26 January)

Event Time Altitude Azimuth Distance (km) Brightness Sun altitude
Rises 07:25:21 0° 273° (W) 2,972 10.0 3.6°
Reaches altitude 10° 07:28:39 10° 248° (WSW) 2,006 9.4 4.2°
Maximum altitude 07:31:03 14° 214° (SW) 1,751 9.4 4.6°
Drops below altitude 10° 07:33:30 10° 182° (S) 2,076 10.3 5.0°
Sets 07:37:02 0° 157° (SSE) 3,153 11.8 5.6°
